sat.trackr.live / text

‹ back to catalog

ONEWEB-0436

NORAD 51633 · 2022-012M

PAYLOAD ACTIVE UNKNOWN

§ Identity

Operator
Country
UK
Launch date
2022-02-10
Launch site
FRGUI
Launch vehicle
Mass (kg)
RCS (m²)

Purposes: comms

External: N2YO · Heavens-Above · Gunter

§ Orbital elements

Epoch: 2026-09-20T05:00:03.016800Z

Period
109.29 min
Inclination
87.9207°
Eccentricity
0.0001965
Mean motion
13.17649783 rev/d
Perigee alt
1,192.2 km
Apogee alt
1,195.2 km
Semi-major
7,571.8 km
B*
6.4607e-5
RAAN
346.9848°
Arg perigee
94.0865°
Mean anomaly
266.0491°
Rev number
22,619

§ Raw data

ONEWEB-04361 51633U 22012M   26263.20836825  .00000038  00000+0  64607-4 0  99952 51633  87.9207 346.9848 0001965  94.0865 266.0491 13.17649783226195

JSON: /api/v1/satellites/51633 · /tle

For live sub-satellite position, see the globe view (requires WebGL).

§ Visibility from observer

Set your observer location to see the next 7 days of passes ≥ 10°. The values pass through the URL so the page stays shareable.

No JS? Fill the form by hand. The geolocation button needs JavaScript.